Location: Salionze
(45.4000°N, 10.7167°E)
Time: 16:34:54
(UTC+00:00)

Daily predictions for brighter satellites

Satellite Brightness Start Highest point End
(mag) Time Altitude Azimuth Time Altitude Azimuth Time Altitude Azimuth
Cosmos 2082 Rocket 3.8 19:23:53 10° N 19:28:23 23° NE 19:32:51 10° E
NOSS 2-3 (D) 3.8 19:26:28 10° SSW 19:30:32 49° ESE 19:35:13 10° NE
STARLINK-1075 4.1 19:26:51 10° NW 19:30:57 58° NNE 19:35:02 10° ESE
Cosmos 1833 Rocket 3.6 19:28:05 10° NNW 19:33:13 35° NE 19:38:19 10° ESE
STARLINK-1211 3.6 19:29:23 10° SW 19:33:28 60° SE 19:37:33 10° ENE
STARLINK-1140 4.5 19:29:39 10° WNW 19:33:34 41° SW 19:37:28 10° SSE
Aureole 1 Rocket 3.5 19:30:01 10° NNW 19:34:05 56° ENE 19:39:24 10° SE
STARLINK-1093 4.0 19:31:49 10° NW 19:35:57 62° NNE 19:40:03 10° ESE
CZ-2C R/B 2.8 19:30:25 10° NNE 19:36:04 85° ESE 19:41:42 10° SSW
Cosmos 407 Rocket 3.6 19:32:39 10° NNW 19:38:01 78° ENE 19:43:22 10° SSE
STARLINK-1245 3.6 19:34:20 10° SW 19:38:26 65° SE 19:42:32 10° ENE
STARLINK-1074 3.9 19:36:48 10° NW 19:40:56 66° NNE 19:45:03 10° ESE
USA 229 DEB 3.9 19:34:46 10° SW 19:41:18 79° NW 19:48:13 10° NE
USA 229 3.9 19:34:54 10° SW 19:41:25 79° NW 19:48:20 10° NE
STARLINK-1233 3.6 19:39:16 10° SW 19:43:23 70° SE 19:47:31 10° ENE
Meteor 2-9 Rocket 4.2 19:39:32 10° N 19:44:55 62° ENE 19:50:10 10° SSE
CZ-2C R/B 4.0 19:41:09 10° N 19:45:36 70° WNW 19:50:06 10° SSW
Okean 1-7 3.0 19:42:41 10° S 19:46:58 84° E 19:51:15 10° N
NOSS 3-1 (C) 3.9 19:42:51 10° SW 19:48:19 65° NW 19:54:44 10° NE
STARLINK-1204 3.5 19:44:15 10° SW 19:48:22 76° SE 19:52:31 10° ENE
SL-8 R/B 4.1 19:45:24 10° W 19:50:12 67° N 19:55:00 10° ENE
NOSS 3-1 (A) 3.3 19:44:58 10° SW 19:50:26 87° SE 19:56:50 10° NE
STARLINK-1088 3.7 19:46:45 10° NW 19:50:55 75° NNE 19:54:50 11° ESE
STARLINK-1238 3.5 19:49:13 10° SW 19:53:21 82° SSE 19:57:30 10° ENE
STARLINK-1115 3.7 19:51:43 10° WNW 19:55:52 80° NNE 19:59:36 13° ESE
ATLAS 3B CENTAUR R/B 4.4 19:51:05 10° SSW 19:57:10 15° S 20:00:55 11° SSE
SPOT 3 Rocket 4.3 19:52:20 10° S 19:57:20 51° W 20:02:23 10° NNW
STARLINK-1201 3.6 19:54:11 10° SW 19:58:20 88° SSE 20:02:29 10° ENE
BREEZE-M DEB (TANK) 4.3 19:56:41 10° W 19:58:25 18° SW 20:00:03 11° S
ERBS 2.8 19:57:07 10° SSW 20:00:10 36° SE 20:03:14 10° ENE
STARLINK-1076 3.6 19:56:42 10° WNW 20:00:51 86° NNE 20:04:23 14° ESE
NOSS 2-3 (C) 3.7 19:56:55 10° SW 20:01:10 87° NW 20:06:15 10° NE
Cosmos 1975 2.8 19:57:21 10° N 20:01:27 87° W 20:05:28 10° S
Cosmos 1190 Rocket 4.1 19:56:44 10° NNW 20:01:58 80° WSW 20:07:08 10° SSE
Cosmos 2278 Rocket 2.3 19:56:40 10° S 20:02:09 53° ESE 20:07:41 10° NE
STARLINK-1206 3.6 19:59:09 10° WSW 20:03:18 86° NW 20:07:28 10° ENE
Cosmos 2221 Rocket 4.0 20:00:11 10° SSE 20:04:28 46° E 20:08:50 10° NNE
SPOT 1/Viking Rocket 4.0 20:00:05 13° SE 20:04:31 47° ENE 20:09:28 10° N
Cosmos 1624 Rocket 4.1 19:59:53 10° SSW 20:05:13 89° WNW 20:10:36 10° NNE
USA 245 3.2 20:02:37 14° SSE 20:05:27 49° ENE 20:08:18 10° N
STARLINK-1092 3.6 20:01:39 10° WNW 20:05:49 88° SSW 20:09:09 15° SE
Cosmos 1140 Rocket 3.6 20:01:14 10° NNW 20:06:27 81° WSW 20:11:23 12° SSE
STARLINK-1205 3.7 20:04:09 10° WSW 20:08:17 81° NNW 20:12:27 10° ENE
Okean 1 4.5 20:04:52 10° SSW 20:08:45 45° WNW 20:12:41 10° N
STARLINK-1237 4.4 20:07:11 10° SSW 20:10:47 29° SE 20:14:24 10° ENE
STARLINK-1080 3.6 20:06:41 10° WNW 20:10:51 82° SSW 20:13:59 17° SE
EXPRESS MD2 4.5 20:08:26 10° S 20:11:00 22° SE 20:15:00 10° ENE
Meteor 1-19 Rocket 4.4 20:07:16 10° SSW 20:12:51 78° WNW 20:18:39 10° N
STARLINK-1218 3.8 20:09:07 10° WSW 20:13:15 75° NNW 20:17:25 10° NE
Resurs 01 Rocket 2.4 20:09:30 10° S 20:13:50 50° W 20:18:11 10° NNW
STARLINK-1202 4.3 20:12:04 10° SSW 20:15:45 32° SE 20:19:27 10° ENE
STARLINK-1090 3.6 20:11:38 10° WNW 20:15:47 77° SW 20:18:44 19° SE
Meteor 1-4 Rocket 2.6 20:12:21 10° SSW 20:15:47 73° W 20:19:15 10° N
Cosmos 1782 Rocket 4.3 20:12:07 10° NNW 20:16:31 54° W 20:20:51 10° S
NOSS 3 (A) 4.2 20:14:11 10° SSW 20:16:48 63° SE 20:19:41 10° NE
Sich 1 Rocket 3.7 20:12:27 10° N 20:17:04 82° W 20:21:21 12° S
Cosmos 1515 4.3 20:14:03 10° SSW 20:17:48 57° W 20:21:35 10° N
STARLINK-1254 3.9 20:14:06 10° WSW 20:18:14 71° NNW 20:22:23 10° NE
Cosmos 1437 Rocket 3.8 20:17:49 19° SE 20:19:34 27° E 20:22:49 10° NNE
STARLINK-1089 3.6 20:16:37 10° WNW 20:20:45 71° SW 20:23:30 20° SE
SeaSat 1 4.3 20:19:25 10° ENE 20:21:22 12° ESE 20:21:42 12° ESE
Abrixas rocket 3.0 20:19:12 10° W 20:22:03 44° N 20:24:55 10° ENE
STARLINK-1231 4.0 20:19:07 10° WSW 20:23:14 66° NNW 20:27:22 10° NE
ERS-1 Rocket 3.3 20:20:14 17° SE 20:23:52 51° ENE 20:28:45 10° N
STARLINK-1246 4.1 20:21:48 10° SSW 20:25:38 38° SE 20:29:29 10° ENE
STARLINK-1107 3.7 20:21:37 10° WNW 20:25:43 65° SW 20:28:17 22° SE
ISS -2.8 20:22:53 10° NW 20:26:08 43° NNE 20:28:52 13° E
Cosmos 2279 Rocket 4.0 20:21:27 10° N 20:27:42 71° E 20:32:42 16° SSE
STARLINK-1091 4.5 20:23:53 10° NW 20:27:54 45° NNE 20:31:32 12° E
Cosmos 1954 Rocket 4.1 20:22:53 10° NNW 20:28:10 81° WSW 20:32:15 17° SSE
STARLINK-1232 4.2 20:24:07 10° WSW 20:28:13 62° NNW 20:32:21 10° NE
Terra 2.8 20:26:03 18° ESE 20:28:59 35° ENE 20:33:18 10° N
STARLINK-1224 3.9 20:26:42 10° SSW 20:30:36 41° SE 20:34:31 10° ENE
STARLINK-1066 3.8 20:26:38 10° WNW 20:30:43 60° SW 20:33:06 23° SE
Okean 2 Rocket 3.0 20:26:29 10° N 20:30:57 87° E 20:34:09 18° S
STARLINK-1072 4.4 20:28:52 10° NW 20:32:54 48° NNE 20:36:18 14° E
STARLINK-1208 4.3 20:29:08 10° WSW 20:33:13 58° NNW 20:37:20 10° NE
Spot 2 Rocket 3.7 20:30:33 14° S 20:34:53 69° WSW 20:39:56 10° NNW
STARLINK-1225 3.8 20:31:36 10° SSW 20:35:32 45° SE 20:39:31 10° ENE
STARLINK-1081 3.9 20:31:37 10° WNW 20:35:40 55° SW 20:37:52 25° SSE
Lacrosse 5 2.1 20:32:28 10° NW 20:37:31 66° NE 20:41:05 19° ESE
STARLINK-1096 4.3 20:33:51 10° NW 20:37:55 51° NNE 20:41:06 15° E
STARLINK-1271 4.4 20:34:08 10° WSW 20:38:11 55° NNW 20:42:17 10° NE
Meteor 1-12 Rocket 4.2 20:33:35 10° NNW 20:39:16 86° W 20:43:40 18° S
COSMOS 2406 3.8 20:33:55 10° NW 20:39:30 52° WSW 20:44:03 15° S
STARLINK-1230 3.7 20:36:31 10° SW 20:40:31 49° SE 20:44:31 10° ENE
STARLINK-1070 4.0 20:36:36 10° WNW 20:40:37 51° SW 20:42:38 26° SSE
Cosmos 676 Rocket 4.4 20:37:11 10° NNW 20:42:20 59° WSW 20:46:14 18° S
Meteor 2-4 Rocket 3.9 20:37:06 10° SSW 20:42:28 69° WNW 20:47:49 10° N
SAR-Lupe-2 4.0 20:39:10 10° N 20:42:44 61° WNW 20:46:17 10° SSW
STARLINK-1079 4.2 20:38:50 10° NW 20:42:55 54° NNE 20:45:53 17° E
Okean 1 Rocket 3.9 20:39:11 10° N 20:43:23 37° ENE 20:45:25 24° SE
Cosmos 371 Rocket 3.2 20:38:43 10° S 20:43:31 71° ESE 20:48:23 10° NNE
Cosmos 2151 Rocket 3.6 20:39:54 10° N 20:44:27 84° E 20:47:15 23° S
STARLINK-1243 3.7 20:41:26 10° SW 20:45:28 53° SE 20:49:31 10° ENE
STARLINK-1069 4.1 20:41:36 10° WNW 20:45:35 46° SW 20:47:25 27° SSE
SL-4 R/B 1.2 20:44:02 10° NNW 20:47:13 76° ENE 20:48:05 41° SE
STARLINK-1116 4.1 20:43:48 10° NW 20:47:54 57° NNE 20:50:39 19° E
Meteor 1-13 Rocket 4.2 20:44:09 11° S 20:49:31 89° ESE 20:55:16 10° N
STARLINK-1236 3.6 20:46:23 10° SW 20:50:27 58° SE 20:54:32 10° ENE
STARLINK-1085 4.2 20:46:37 10° WNW 20:50:33 43° SW 20:52:13 28° S
NOSS 8 (F) 4.5 20:51:00 38° SSE 20:51:39 44° ESE 20:54:34 10° NE
STARLINK-1086 4.4 20:51:37 10° WNW 20:55:29 39° SW 20:56:59 28° S
Crew Dragon 0.7 20:55:32 10° NW 20:57:34 49° NNE 20:57:34 49° NNE
STARLINK-1094 3.9 20:53:46 10° NW 20:57:54 64° NNE 21:00:14 24° ESE
STARLINK-1269 3.5 20:56:15 10° SW 21:00:21 68° SE 21:04:29 10° ENE
STARLINK-1095 4.5 20:56:39 10° WNW 21:00:27 36° SW 21:01:47 28° S
Cosmos 2297 4.0 20:57:27 23° SSE 21:00:34 46° ESE 21:06:01 10° NE
STARLINK-1117 3.8 20:58:44 10° NW 21:02:53 69° NNE 21:05:00 27° ESE
CARTOSAT-1 3.7 21:01:35 27° S 21:03:51 73° WSW 21:08:11 10° NNW
STARLINK-1200 3.5 21:01:13 10° SW 21:05:21 74° SE 21:09:30 10° ENE
BREEZE M DEB (TANK) 2.3 21:02:22 10° WSW 21:07:44 83° SSE 21:09:29 17° ENE
STARLINK-1078 3.7 21:03:43 10° NW 21:07:52 73° NNE 21:09:49 30° ESE
STARLINK-1192 3.5 21:06:11 10° SW 21:10:20 80° SE 21:14:30 10° ENE
TSX-5 4.5 21:06:16 13° SSW 21:11:35 67° ESE 21:16:13 10° NE
STARLINK-1108 3.6 21:08:42 10° WNW 21:12:51 79° NNE 21:14:35 34° ESE
SPOT 5 3.2 21:10:01 26° S 21:12:57 70° WSW 21:18:16 10° NNW
Cosmos 2082 Rocket 2.3 21:07:20 10° NNW 21:13:03 70° WSW 21:16:03 29° S
STARLINK-1244 3.5 21:11:09 10° SW 21:15:18 86° SE 21:19:28 10° ENE
Cosmos 1461 2.9 21:15:49 38° S 21:17:05 55° ESE 21:21:20 10° NE
Cosmos 1833 Rocket 3.6 21:11:59 10° NW 21:17:11 40° WSW 21:20:27 21° SSW
STARLINK-1071 3.6 21:13:40 10° WNW 21:17:50 84° NNE 21:19:22 38° ESE
Cosmos 1452 Rocket 4.0 21:13:49 10° SW 21:19:01 60° WNW 21:24:16 10° NNE
STARLINK-1138 3.5 21:16:07 10° WSW 21:20:15 88° NW 21:24:26 10° ENE
Cosmos 1378 3.3 21:20:31 48° SE 21:21:05 55° E 21:24:45 10° NNE
STARLINK-1110 3.5 21:17:45 10° WNW 21:21:55 89° NE 21:23:17 41° ESE
USA 215 3.9 21:16:01 10° E 21:22:20 54° NNE 21:28:40 10° NW
Thor Agena Rocket 4.3 21:18:21 10° NNE 21:23:16 37° E 21:24:39 31° SE
EO 1 Del DPAF 4.4 21:20:47 10° NE 21:23:53 27° E 21:23:53 27° E
Aureole 2 Rocket 2.0 21:24:15 73° ESE 21:24:17 74° ESE 21:27:22 10° NNE
STARLINK-1143 3.6 21:21:05 10° WSW 21:25:14 83° NNW 21:29:24 10° ENE
Cosmos 2369 Rocket 3.3 21:26:14 24° ESE 21:26:54 25° ESE 21:31:23 10° NE
NOSS 2-2 (D) 3.9 21:27:50 35° E 21:27:50 35° E 21:30:48 10° NE
Cosmos 304 Rocket 3.7 21:24:47 27° SSW 21:27:23 86° ESE 21:32:13 10° NNE
STARLINK-1124 3.5 21:23:37 10° WNW 21:27:46 85° SSW 21:28:54 47° SE
STARLINK-1203 3.7 21:24:43 10° WSW 21:28:55 78° NNW 21:33:08 10° ENE
Cosmos 1943 Rocket 2.8 21:28:55 32° SE 21:30:02 35° ESE 21:35:03 10° NE
STARLINK-1241 3.7 21:26:05 10° WSW 21:30:13 77° NNW 21:34:24 10° ENE
Cosmos 1805 3.2 21:26:52 10° N 21:30:47 71° E 21:31:34 53° SE
STARLINK-1122 3.5 21:28:36 10° WNW 21:32:45 79° SW 21:33:42 52° SE
SL-8 R/B 4.1 21:28:17 10° WNW 21:33:05 65° N 21:37:10 14° E
Cosmos 1066 Rocket 4.2 21:31:09 23° SSW 21:34:34 73° WNW 21:39:57 10° N
STARLINK-1239 3.8 21:31:04 10° WSW 21:35:12 72° NNW 21:39:22 10° NE
ERBS 4.3 21:33:32 10° W 21:36:30 29° NNW 21:39:28 10° NNE
STARLINK-1126 3.5 21:33:37 10° WNW 21:37:46 73° SW 21:38:32 56° SSE
STARLINK-1240 3.9 21:36:05 10° WSW 21:40:12 68° NNW 21:44:21 10° NE
STARLINK-1082 3.5 21:38:34 10° WNW 21:42:42 67° SW 21:43:15 58° S
Cosmos 1842 3.6 21:43:39 46° ESE 21:43:49 47° E 21:47:35 10° NNE
CENTAUR R/B 4.0 21:37:10 10° NNW 21:44:36 43° NE 21:52:40 10° ESE
STARLINK-1216 4.0 21:41:04 10° WSW 21:45:11 63° NNW 21:49:19 10° NE
NOSS 2-2 (E) 2.9 21:45:11 66° S 21:45:36 79° SE 21:49:36 10° NE
Cosmos 1378 Rocket 4.4 21:43:25 23° SW 21:45:50 45° WNW 21:50:05 10° N
Cosmos 2278 Rocket 4.2 21:41:42 10° WSW 21:46:32 28° NW 21:51:25 10° N
STARLINK-1100 3.6 21:43:34 10° WNW 21:47:41 62° SW 21:48:03 58° S
STARLINK-1130 (DARKSAT) 4.5 21:45:52 10° NW 21:49:53 47° NNE 21:52:04 24° E
STARLINK-1237 4.1 21:46:05 10° WSW 21:50:10 60° NNW 21:54:17 10° NE
Cosmos 2026 Rocket 4.0 21:48:11 36° SSE 21:50:49 68° E 21:57:07 10° NNE
deb Kosmos-1763 4.3 21:48:46 10° NNW 21:52:17 53° WSW 21:52:28 52° WSW
STARLINK-1083 3.7 21:48:32 10° WNW 21:52:36 57° SW 21:52:48 56° SSW
STARLINK-1084 4.4 21:50:50 10° NW 21:54:52 50° NNE 21:56:49 27° E
STARLINK-1202 4.3 21:51:07 10° WSW 21:55:10 56° NNW 21:59:17 10° NE
Okean 2 3.3 21:56:17 60° SSW 21:57:01 88° W 22:01:12 10° N
STARLINK-1125 3.8 21:53:33 10° WNW 21:57:36 52° SW 21:57:36 52° SW
Abrixas rocket 2.9 21:54:53 10° WNW 21:57:11 47° NW 21:57:11 47° NW
Cosmos 1975 Rocket 3.0 21:57:35 55° S 21:58:33 86° E 22:03:00 10° N
SeaSat 1 2.3 21:54:33 10° NNE 21:59:31 86° ESE 22:01:27 38° SSW
STARLINK-1098 4.3 21:55:49 10° NW 21:59:53 52° NNE 22:01:37 30° E
Cosmos 292 Rocket 4.5 22:00:50 35° ESE 22:01:03 36° ESE 22:05:28 10° NE
STARLINK-1109 4.0 21:58:33 10° WNW 22:02:23 48° SW 22:02:23 48° SW
ISS -2.3 21:59:45 10° WNW 22:01:47 28° W 22:01:47 28° W
STARLINK-1123 4.2 22:00:48 10° NW 22:04:53 56° NNE 22:06:24 34° E
STARLINK-1246 4.5 22:01:07 10° W 22:05:10 50° NNW 22:09:13 10° NE
Terra 3.3 22:04:56 22° SW 22:06:46 29° W 22:10:53 10° NW
STARLINK-1091 4.2 22:03:33 10° WNW 22:07:09 43° SW 22:07:09 43° SW
NOSS 2-2 (C) 3.2 22:08:29 64° WSW 22:08:56 76° NW 22:12:54 10° NE
STARLINK-1097 4.1 22:05:45 10° NW 22:09:51 59° NNE 22:11:10 38° E
ATLAS 2AS CENTAUR R/B 3.7 22:08:00 32° SE 22:09:54 35° ESE 22:16:56 10° NE
Cosmos 1242 Rocket 2.9 22:11:39 53° ENE 22:11:39 53° ENE 22:14:54 10° NNE
STARLINK-1072 4.4 22:08:33 10° WNW 22:11:56 38° WSW 22:11:56 38° WSW
STARLINK-1099 3.9 22:10:44 10° NW 22:14:51 63° NNE 22:15:57 44° E
Cosmos 968 Rocket 4.1 22:11:06 10° NNW 22:16:07 47° ENE 22:17:45 35° ESE
Helios 1A 4.4 22:15:41 24° E 22:16:36 27° ENE 22:20:08 10° N
NOSS 3-2 (A) 4.1 22:09:16 10° NW 22:16:50 83° NE 22:21:23 31° SE
BREEZE-M DEB (TANK) 3.7 22:13:47 10° WNW 22:17:25 50° N 22:21:25 10° E
Spot 4 3.8 22:17:50 55° S 22:18:54 83° WSW 22:23:48 10° NNW
Cosmos 1766 4.3 22:15:26 10° NNW 22:19:05 36° W 22:19:37 34° WSW
STARLINK-1104 3.8 22:15:41 10° NW 22:19:49 67° NNE 22:20:42 50° E
Cosmos 1271 Rocket 3.2 22:20:18 49° E 22:20:18 49° E 22:23:47 10° NNE
Lacrosse 5 3.1 22:15:59 10° WNW 22:20:08 26° SW 22:20:15 26° SW
BREEZE-M DEB (TANK) 3.5 22:07:39 10° WSW 22:20:19 74° NNW 22:23:50 10° ENE
STARLINK-1144 3.7 22:20:40 10° NW 22:24:49 72° NNE 22:25:30 57° E
USA 238 DEB 3.8 22:18:09 10° NW 22:25:25 89° NE 22:28:52 36° SE
USA 238 3.8 22:18:15 10° NW 22:25:30 89° NE 22:28:59 36° SE
Cosmos 1733 4.1 22:22:48 10° NNW 22:26:20 36° W 22:26:32 36° W
SL-4 R/B 3.9 22:29:44 16° N 22:29:44 16° N 22:30:18 10° N
Cosmos 1707 3.1 22:28:29 53° E 22:28:29 53° E 22:32:04 10° NNE
STARLINK-1103 3.6 22:25:39 10° WNW 22:29:49 77° NNE 22:30:18 66° E
Cosmos 1455 Rocket 3.3 22:27:52 10° NNW 22:32:06 53° W 22:32:37 50° WSW
Cosmos 1340 Rocket 4.0 22:29:10 10° N 22:32:49 32° ENE 22:33:11 32° E
Nimbus 7 Rocket 4.4 22:27:32 10° NNE 22:33:39 75° ESE 22:35:34 46° S
Cosmos 1953 3.0 22:30:18 10° N 22:34:08 42° ENE 22:34:15 42° E
Cosmos 1486 Rocket 3.9 22:29:00 10° NNW 22:34:21 86° ENE 22:35:35 54° SSE
STARLINK-1101 3.5 22:30:38 10° WNW 22:34:47 82° NNE 22:35:04 75° E
Cosmos 1025 Rocket 2.9 22:34:49 69° ESE 22:34:59 70° E 22:39:16 10° NNE
COSMOS 2455 3.9 22:35:46 27° ESE 22:36:10 28° ESE 22:41:09 10° NE
STARLINK-1102 3.5 22:35:36 10° WNW 22:39:46 88° NNE 22:39:51 86° E
Cosmos 1302 Rocket 4.3 22:37:48 36° SW 22:39:50 63° WNW 22:45:07 10° NNE
Cosmos 1674 4.5 22:42:53 21° ENE 22:42:53 21° ENE 22:45:21 10° NE
Cosmos 1758 3.3 22:40:20 10° NNW 22:44:22 73° W 22:44:24 73° W
STARLINK-1111 3.5 22:40:36 10° WNW 22:44:38 83° W 22:44:38 83° W
STARLINK-1073 3.6 22:45:35 10° WNW 22:49:25 74° W 22:49:25 74° W
Aureole 3 Rocket 4.4 22:46:35 10° NNW 22:52:07 61° W 22:54:52 38° SSW
STARLINK-1121 3.7 22:50:33 10° WNW 22:54:11 64° W 22:54:11 64° W
Cosmos 1536 Rocket 3.4 22:57:54 71° WSW 22:58:13 75° W 23:02:34 10° N
SL-4 R/B 3.2 22:59:59 36° ESE 22:59:59 36° ESE 23:03:22 10° ENE
STARLINK-1106 3.9 22:55:32 10° WNW 22:58:58 56° W 22:58:58 56° W
ATLAS 5 CENTAUR R/B 2.5 23:00:58 38° NNE 23:00:58 38° NNE 23:02:24 10° NE
SL-27 R/B 3.7 22:56:56 10° NW 22:59:33 33° WNW 22:59:33 33° WNW
Cosmos 2315 Rocket 4.3 22:54:33 10° N 23:00:40 56° ENE 23:02:52 38° SE
Cosmos 1470 3.7 22:57:28 10° NNW 23:00:55 38° W 23:00:55 38° W
ALOS 2 2.7 23:01:01 59° WSW 23:01:15 60° W 23:05:36 10° NNW
Meteor 2-8 Rocket 4.4 22:55:53 10° NNW 23:02:01 74° W 23:03:50 47° SSW
Cosmos 2228 3.9 22:58:57 10° N 23:02:55 36° ENE 23:03:26 35° E
APEX 4.3 23:01:32 42° SSW 23:03:58 87° WNW 23:09:39 10° NNE
STARLINK-1112 4.1 23:00:33 10° WNW 23:03:46 49° W 23:03:46 49° W
USA 215 3.3 23:03:19 43° SSE 23:05:18 60° SW 23:11:47 10° NW
ATLAS CENTAUR R/B 4.4 23:08:37 10° NNE 23:09:15 11° NNE 23:09:57 10° NE
Cosmos 1992 Rocket 3.9 23:08:31 57° SSW 23:09:37 85° WNW 23:14:52 10° NNE
STARLINK-1128 4.3 23:05:33 10° WNW 23:08:33 43° W 23:08:33 43° W
Cosmos 2369 Rocket 2.7 23:07:59 31° WSW 23:10:32 55° WNW 23:16:06 10° NNE
COSMOS 2487 3.3 23:08:47 10° N 23:11:49 44° NE 23:11:49 44° NE
Cosmos 1908 3.8 23:09:53 10° N 23:13:30 48° ENE 23:13:30 48° ENE
Cosmos 1943 Rocket 3.3 23:10:23 20° WSW 23:13:43 38° NW 23:18:56 10° NNE
SL-8 R/B 3.9 23:10:56 10° WNW 23:15:04 54° WSW 23:15:04 54° WSW
S3M 4.2 23:11:22 10° NNW 23:17:23 57° W 23:19:11 42° SW
Cosmos 2292 Rocket 3.3 23:17:52 78° W 23:17:55 78° W 23:21:32 10° N
Cosmos 1655 Rocket 4.3 23:20:26 37° SW 23:22:42 56° WNW 23:28:51 10° N
NOSS 3-2 (C) 4.1 23:15:32 10° NW 23:23:06 67° WSW 23:26:35 38° S
ATLAS CENTAUR R/B 1.9 23:25:24 49° E 23:25:24 49° E 23:29:04 10° NE
Cosmos 1726 2.8 23:22:35 10° NNW 23:25:42 46° WNW 23:25:42 46° WNW
KORONAS-FOTON 4.0 23:27:18 64° ENE 23:27:18 64° ENE 23:30:48 10° NNE
NOSS 3-4 (A) 3.3 23:29:50 44° SW 23:31:52 90° SE 23:38:14 10° NE
NOSS 3-4 (C) 3.3 23:29:57 45° SW 23:31:58 89° ESE 23:38:21 10° NE
Landsat 4 4.0 23:29:01 10° N 23:32:31 60° WNW 23:32:31 60° WNW
ATLAS 3B R/B 2.9 23:27:09 10° NW 23:33:57 72° NE 23:38:47 22° SE
Cosmos 1606 Rocket 3.4 23:30:27 10° N 23:34:48 83° E 23:35:04 77° SE
CENTAUR R/B 3.2 23:27:49 10° NW 23:35:53 66° WSW 23:39:48 36° S
STARLINK-1212 4.4 23:35:47 10° NW 23:38:43 35° NNE 23:38:54 35° NNE
STARLINK-1105 4.4 23:36:15 10° NW 23:39:10 36° NNE 23:39:22 35° NNE
RESURS DK-1 3.4 23:39:42 33° E 23:39:42 33° E 23:43:08 10° NE
STARLINK-1234 4.1 23:36:21 10° NW 23:39:05 42° N 23:39:05 42° N
STARLINK-1247 4.4 23:37:08 10° NW 23:40:04 36° NNE 23:40:17 36° NNE
STARLINK-1227 4.4 23:37:35 10° NW 23:40:30 36° NNE 23:40:35 36° NNE
STARLINK-1226 4.3 23:38:29 10° NW 23:41:25 37° NNE 23:41:35 37° NNE
STARLINK-1215 4.3 23:39:22 10° NW 23:42:19 37° NNE 23:42:26 37° NNE
Meteor 2-5 Rocket 3.7 23:41:51 50° SSE 23:43:13 70° E 23:48:47 10° NNE
STARLINK-1217 4.3 23:41:11 10° NW 23:44:08 38° NNE 23:44:10 38° NNE
STARLINK-1229 4.2 23:42:03 10° NW 23:45:01 39° NNE 23:45:02 39° NNE
STARLINK-1270 4.2 23:42:57 10° NW 23:45:55 39° NNE 23:45:55 39° NNE
Cosmos 1777 Rocket 4.2 23:40:45 10° NNW 23:45:58 67° ENE 23:47:45 41° SE
STARLINK-1189 4.2 23:44:45 10° NW 23:47:37 40° NNE 23:47:37 40° NNE
STARLINK-1188 4.2 23:45:40 10° NW 23:48:31 40° NNE 23:48:31 40° NNE
STARLINK-1209 4.2 23:46:07 10° NW 23:48:27 40° NNW 23:48:27 40° NNW
STARLINK-1235 4.4 23:46:19 10° NW 23:48:26 35° NNW 23:48:26 35° NNW
STARLINK-1187 4.3 23:46:45 10° NW 23:49:05 37° NNW 23:49:05 37° NNW
Cosmos 1626 2.7 23:50:51 49° E 23:50:51 49° E 23:54:17 10° NNE
STARLINK-1191 4.2 23:48:06 10° NW 23:50:47 40° N 23:50:47 40° N
STARLINK-1221 4.2 23:49:00 10° NW 23:51:40 41° N 23:51:40 41° N
Helios 1A 4.2 23:52:18 29° W 23:52:18 29° W 23:55:47 10° NW
Cosmos 1300 3.4 23:49:08 10° N 23:52:48 44° ENE 23:53:09 42° E
STARLINK-1222 4.2 23:49:54 10° NW 23:52:32 41° N 23:52:32 41° N
STARLINK-1214 4.1 23:50:50 10° NW 23:53:26 41° N 23:53:26 41° N
Cosmos 1656 Rocket 4.3 23:51:32 31° WSW 23:53:52 49° WNW 23:59:18 10° NNE
BREEZE-M DEB (TANK) 3.6 23:56:49 20° ENE 23:56:49 20° ENE 23:57:34 10° ENE
